Orbital Elements at Epoch 2459200.5 (2020-Dec-17.0) TDB
Reference: JPL 22 (heliocentric ecliptic J2000)
Element | Value | Uncertainty (1-sigma) | Units |
e | .09197594526888798 | 3.295e-08 | |
a | 2.5765388441319 | 1.0122e-08 | au |
q | 2.33955924842086 | 8.5018e-08 | au |
i | 5.233901262391842 | 4.0009e-06 | deg |
node | 27.17324574164588 | 4.6874e-05 | deg |
peri | 20.89068203227239 | 5.3767e-05 | deg |
M | 40.85028806972321 | 2.7051e-05 | deg |
tp | 2459029.086078312377 (2020-Jun-28.58607831) | 0.00011316 | TDB |
period | 1510.613871369024 4.14 | 8.9014e-06 2.437e-08 | d yr |
n | .2383137126059505 | 1.4043e-09 | deg/d |
Q | 2.813518439842939 | 1.1053e-08 | au |
|
| | Orbit Determination Parameters
Additional Information
|